Time,TemperatureF,DewpointF,PressureIn,WindDirection,WindDirectionDegrees,WindSpeedMPH,WindSpeedGustMPH,Humidity,HourlyPrecipIn,Conditions,Clouds,dailyrainin,SoftwareType,DateUTC
2013-09-24 00:00:00,65.5,51.2,29.75,SSW,203,0.0,8.0,60,0.00,,,0.00,WUHU216DAVISVP2,2013-09-24 05:00:00,
2013-09-24 00:01:00,65.5,51.4,29.75,SSW,198,1.0,8.0,60,0.00,,,0.00,WUHU216DAVISVP2,2013-09-24 05:01:00,
2013-09-24 00:05:00,65.6,51.8,29.75,SSW,203,2.0,11.0,61,0.00,,,0.00,WUHU216DAVISVP2,2013-09-24 05:05:00,
2013-09-24 00:06:00,65.5,51.4,29.75,SSW,196,7.0,11.0,60,0.00,,,0.00,WUHU216DAVISVP2,2013-09-24 05:06:00,
2013-09-24 00:10:00,65.5,51.7,29.75,SSW,203,2.0,11.0,61,0.00,,,0.00,WUHU216DAVISVP2,2013-09-24 05:10:00,
2013-09-24 00:11:00,65.5,51.9,29.75,SSW,198,0.0,11.0,61,0.00,,,0.00,WUHU216DAVISVP2,2013-09-24 05:11:00,
2013-09-24 00:15:00,65.4,51.6,29.75,SSW,203,2.0,11.0,61,0.00,,,0.00,WUHU216DAVISVP2,2013-09-24 05:15:00,
2013-09-24 00:16:00,65.4,51.8,29.75,South,184,2.0,11.0,61,0.00,,,0.00,WUHU216DAVISVP2,2013-09-24 05:16:00,
2013-09-24 00:20:00,65.3,51.5,29.75,South,180,2.0,12.0,61,0.00,,,0.00,WUHU216DAVISVP2,2013-09-24 05:20:00,
2013-09-24 00:21:00,65.3,51.7,29.75,South,186,1.0,12.0,61,0.00,,,0.00,WUHU216DAVISVP2,2013-09-24 05:21:00,
2013-09-24 00:25:00,65.2,51.4,29.75,South,180,2.0,13.0,61,0.00,,,0.00,WUHU216DAVISVP2,2013-09-24 05:25:00,
2013-09-24 00:26:00,65.1,51.5,29.75,South,182,3.0,13.0,61,0.00,,,0.00,WUHU216DAVISVP2,2013-09-24 05:26:00,
2013-09-24 00:30:00,65.0,51.7,29.75,South,180,2.0,13.0,62,0.00,,,0.00,WUHU216DAVISVP2,2013-09-24 05:30:00,
2013-09-24 00:31:00,65.0,51.8,29.75,SSW,192,0.0,13.0,62,0.00,,,0.00,WUHU216DAVISVP2,2013-09-24 05:31:00,
2013-09-24 00:35:00,64.8,51.5,29.76,South,180,1.0,13.0,62,0.00,,,0.00,WUHU216DAVISVP2,2013-09-24 05:35:00,
2013-09-24 00:36:00,64.8,51.6,29.76,South,189,0.0,7.0,62,0.00,,,0.00,WUHU216DAVISVP2,2013-09-24 05:36:00,
2013-09-24 00:40:00,64.6,51.3,29.76,South,180,0.0,7.0,62,0.00,,,0.00,WUHU216DAVISVP2,2013-09-24 05:40:00,
2013-09-24 00:41:00,64.6,51.9,29.76,South,188,0.0,3.0,63,0.00,,,0.00,WUHU216DAVISVP2,2013-09-24 05:41:00,
2013-09-24 00:45:00,64.5,51.6,29.76,North,0,0.0,5.0,63,0.00,,,0.00,WUHU216DAVISVP2,2013-09-24 05:45:00,
2013-09-24 00:46:00,64.4,51.7,29.76,South,190,0.0,1.0,63,0.00,,,0.00,WUHU216DAVISVP2,2013-09-24 05:46:00,
2013-09-24 00:50:00,64.2,51.3,29.76,North,0,0.0,1.0,63,0.00,,,0.00,WUHU216DAVISVP2,2013-09-24 05:50:00,
2013-09-24 00:51:00,64.2,51.5,29.76,South,187,0.0,0.0,63,0.00,,,0.00,WUHU216DAVISVP2,2013-09-24 05:51:00,
2013-09-24 00:55:00,64.1,51.7,29.76,North,0,0.0,0.0,64,0.00,,,0.00,WUHU216DAVISVP2,2013-09-24 05:55:00,
2013-09-24 00:56:00,64.0,51.7,29.76,South,188,0.0,0.0,64,0.00,,,0.00,WUHU216DAVISVP2,2013-09-24 05:56:00,
2013-09-24 01:00:00,63.9,51.5,29.75,South,180,0.0,5.0,64,0.00,,,0.00,WUHU216DAVISVP2,2013-09-24 06:00:00,
2013-09-24 01:01:00,63.9,51.6,29.75,South,185,0.0,5.0,64,0.00,,,0.00,WUHU216DAVISVP2,2013-09-24 06:01:00,
2013-09-24 01:05:00,63.8,51.4,29.75,South,180,0.0,5.0,64,0.00,,,0.00,WUHU216DAVISVP2,2013-09-24 06:05:00,
2013-09-24 01:06:00,63.8,51.5,29.75,South,189,0.0,6.0,64,0.00,,,0.00,WUHU216DAVISVP2,2013-09-24 06:06:00,
2013-09-24 01:10:00,63.7,51.3,29.76,South,180,0.0,6.0,64,0.00,,,0.00,WUHU216DAVISVP2,2013-09-24 06:10:00,
2013-09-24 01:11:00,63.7,51.5,29.76,South,190,0.0,6.0,64,0.00,,,0.00,WUHU216DAVISVP2,2013-09-24 06:11:00,
2013-09-24 01:15:00,63.5,51.5,29.76,South,180,0.0,6.0,65,0.00,,,0.00,WUHU216DAVISVP2,2013-09-24 06:15:00,
2013-09-24 01:16:00,63.5,51.7,29.76,South,188,0.0,3.0,65,0.00,,,0.00,WUHU216DAVISVP2,2013-09-24 06:16:00,
2013-09-24 01:20:00,63.4,51.4,29.76,SSW,203,0.0,6.0,65,0.00,,,0.00,WUHU216DAVISVP2,2013-09-24 06:20:00,
2013-09-24 01:21:00,63.4,51.6,29.76,SSW,199,0.0,4.0,65,0.00,,,0.00,WUHU216DAVISVP2,2013-09-24 06:21:00,
2013-09-24 01:25:00,63.3,51.3,29.76,South,180,0.0,7.0,65,0.00,,,0.00,WUHU216DAVISVP2,2013-09-24 06:25:00,
2013-09-24 01:26:00,63.3,51.5,29.76,South,184,1.0,7.0,65,0.00,,,0.00,WUHU216DAVISVP2,2013-09-24 06:26:00,
2013-09-24 01:30:00,63.2,51.2,29.76,South,180,0.0,7.0,65,0.00,,,0.00,WUHU216DAVISVP2,2013-09-24 06:30:00,
2013-09-24 01:31:00,63.2,51.4,29.76,SSW,194,0.0,7.0,65,0.00,,,0.00,WUHU216DAVISVP2,2013-09-24 06:31:00,
2013-09-24 01:35:00,63.1,51.1,29.76,North,0,0.0,7.0,65,0.00,,,0.00,WUHU216DAVISVP2,2013-09-24 06:35:00,
2013-09-24 01:36:00,63.0,51.2,29.77,SSW,192,0.0,2.0,65,0.00,,,0.00,WUHU216DAVISVP2,2013-09-24 06:36:00,
2013-09-24 01:40:00,62.9,51.4,29.76,North,0,0.0,5.0,66,0.00,,,0.00,WUHU216DAVISVP2,2013-09-24 06:40:00,
2013-09-24 01:41:00,62.9,51.5,29.77,South,178,0.0,0.0,66,0.00,,,0.00,WUHU216DAVISVP2,2013-09-24 06:41:00,
2013-09-24 01:45:00,62.8,51.3,29.77,North,0,0.0,0.0,66,0.00,,,0.00,WUHU216DAVISVP2,2013-09-24 06:45:00,
2013-09-24 01:46:00,62.8,51.4,29.77,South,182,0.0,0.0,66,0.00,,,0.00,WUHU216DAVISVP2,2013-09-24 06:46:00,
2013-09-24 01:50:00,62.7,51.2,29.77,North,0,0.0,0.0,66,0.00,,,0.00,WUHU216DAVISVP2,2013-09-24 06:50:00,
2013-09-24 01:51:00,62.7,51.3,29.77,South,190,0.0,0.0,66,0.00,,,0.00,WUHU216DAVISVP2,2013-09-24 06:51:00,
2013-09-24 01:55:00,62.7,51.2,29.76,South,180,0.0,5.0,66,0.00,,,0.00,WUHU216DAVISVP2,2013-09-24 06:55:00,
2013-09-24 01:56:00,62.6,51.2,29.76,South,188,0.0,5.0,66,0.00,,,0.00,WUHU216DAVISVP2,2013-09-24 06:56:00,
2013-09-24 02:00:00,62.6,51.1,29.77,South,180,0.0,5.0,66,0.00,,,0.00,WUHU216DAVISVP2,2013-09-24 07:00:00,
2013-09-24 02:01:00,62.6,52.0,29.77,South,188,0.0,5.0,68,0.00,,,0.00,WUHU216DAVISVP2,2013-09-24 07:01:00,
2013-09-24 02:05:00,62.5,51.0,29.77,South,180,0.0,5.0,66,0.00,,,0.00,WUHU216DAVISVP2,2013-09-24 07:05:00,
2013-09-24 02:06:00,62.5,51.1,29.77,SSW,192,0.0,4.0,66,0.00,,,0.00,WUHU216DAVISVP2,2013-09-24 07:06:00,
2013-09-24 02:10:00,62.5,51.0,29.76,North,0,0.0,4.0,66,0.00,,,0.00,WUHU216DAVISVP2,2013-09-24 07:10:00,
2013-09-24 02:11:00,62.4,51.0,29.77,SSW,192,0.0,4.0,66,0.00,,,0.00,WUHU216DAVISVP2,2013-09-24 07:11:00,
2013-09-24 02:15:00,62.3,51.2,29.77,South,180,0.0,5.0,67,0.00,,,0.00,WUHU216DAVISVP2,2013-09-24 07:15:00,
2013-09-24 02:16:00,62.3,51.4,29.77,SSW,192,0.0,5.0,67,0.00,,,0.00,WUHU216DAVISVP2,2013-09-24 07:16:00,
2013-09-24 02:20:00,62.2,51.1,29.77,SSW,203,1.0,7.0,67,0.00,,,0.00,WUHU216DAVISVP2,2013-09-24 07:20:00,
2013-09-24 02:21:00,62.2,51.3,29.77,SSW,196,0.0,7.0,67,0.00,,,0.00,WUHU216DAVISVP2,2013-09-24 07:21:00,
2013-09-24 02:25:00,62.1,51.0,29.78,North,0,0.0,7.0,67,0.00,,,0.00,WUHU216DAVISVP2,2013-09-24 07:25:00,
2013-09-24 02:26:00,62.1,51.2,29.78,SSW,195,0.0,7.0,67,0.00,,,0.00,WUHU216DAVISVP2,2013-09-24 07:26:00,
2013-09-24 02:30:00,62.0,50.9,29.77,North,0,0.0,7.0,67,0.00,,,0.00,WUHU216DAVISVP2,2013-09-24 07:30:00,
2013-09-24 02:31:00,62.0,51.1,29.78,SSW,196,0.0,0.0,67,0.00,,,0.00,WUHU216DAVISVP2,2013-09-24 07:31:00,
2013-09-24 02:35:00,61.8,51.1,29.78,North,0,0.0,0.0,68,0.00,,,0.00,WUHU216DAVISVP2,2013-09-24 07:35:00,
2013-09-24 02:36:00,61.8,51.3,29.78,SSW,196,0.0,0.0,68,0.00,,,0.00,WUHU216DAVISVP2,2013-09-24 07:36:00,
2013-09-24 02:40:00,61.7,51.0,29.78,North,0,0.0,0.0,68,0.00,,,0.00,WUHU216DAVISVP2,2013-09-24 07:40:00,
2013-09-24 02:41:00,61.7,51.2,29.78,SSW,195,0.0,0.0,68,0.00,,,0.00,WUHU216DAVISVP2,2013-09-24 07:41:00,
2013-09-24 02:45:00,61.6,50.9,29.78,North,0,0.0,0.0,68,0.00,,,0.00,WUHU216DAVISVP2,2013-09-24 07:45:00,
2013-09-24 02:46:00,61.6,51.1,29.78,SSW,194,1.0,2.0,68,0.00,,,0.00,WUHU216DAVISVP2,2013-09-24 07:46:00,
2013-09-24 02:50:00,61.6,50.9,29.78,SSW,203,0.0,4.0,68,0.00,,,0.00,WUHU216DAVISVP2,2013-09-24 07:50:00,
2013-09-24 02:51:00,61.6,51.1,29.78,SSW,192,0.0,4.0,68,0.00,,,0.00,WUHU216DAVISVP2,2013-09-24 07:51:00,
2013-09-24 02:55:00,61.6,50.9,29.77,SSW,203,0.0,5.0,68,0.00,,,0.00,WUHU216DAVISVP2,2013-09-24 07:55:00,
2013-09-24 02:56:00,61.6,51.1,29.78,SSW,196,0.0,7.0,68,0.00,,,0.00,WUHU216DAVISVP2,2013-09-24 07:56:00,
2013-09-24 03:00:00,61.7,51.0,29.77,SSW,203,0.0,7.0,68,0.00,,,0.00,WUHU216DAVISVP2,2013-09-24 08:00:00,
2013-09-24 03:01:00,61.7,51.2,29.77,SSW,196,0.0,7.0,68,0.00,,,0.00,WUHU216DAVISVP2,2013-09-24 08:01:00,
2013-09-24 03:05:00,61.7,51.0,29.78,North,0,0.0,7.0,68,0.00,,,0.00,WUHU216DAVISVP2,2013-09-24 08:05:00,
2013-09-24 03:06:00,61.7,51.2,29.78,SSW,196,0.0,6.0,68,0.00,,,0.00,WUHU216DAVISVP2,2013-09-24 08:06:00,
2013-09-24 03:10:00,61.7,51.0,29.77,North,0,0.0,7.0,68,0.00,,,0.00,WUHU216DAVISVP2,2013-09-24 08:10:00,
2013-09-24 03:11:00,61.7,51.6,29.78,SSW,196,0.0,0.0,69,0.00,,,0.00,WUHU216DAVISVP2,2013-09-24 08:11:00,
2013-09-24 03:15:00,61.6,51.3,29.78,North,0,0.0,0.0,69,0.00,,,0.00,WUHU216DAVISVP2,2013-09-24 08:15:00,
2013-09-24 03:16:00,61.6,51.5,29.78,SSW,196,0.0,0.0,69,0.00,,,0.00,WUHU216DAVISVP2,2013-09-24 08:16:00,
2013-09-24 03:20:00,61.5,51.2,29.78,North,0,0.0,0.0,69,0.00,,,0.00,WUHU216DAVISVP2,2013-09-24 08:20:00,
2013-09-24 03:21:00,61.4,51.3,29.78,SSW,196,0.0,0.0,69,0.00,,,0.00,WUHU216DAVISVP2,2013-09-24 08:21:00,
2013-09-24 03:25:00,61.4,51.1,29.78,North,0,0.0,0.0,69,0.00,,,0.00,WUHU216DAVISVP2,2013-09-24 08:25:00,
2013-09-24 03:26:00,61.3,51.2,29.78,SSW,195,0.0,0.0,69,0.00,,,0.00,WUHU216DAVISVP2,2013-09-24 08:26:00,
2013-09-24 03:30:00,61.2,50.9,29.78,North,0,0.0,0.0,69,0.00,,,0.00,WUHU216DAVISVP2,2013-09-24 08:30:00,
2013-09-24 03:31:00,61.2,51.1,29.78,SSW,195,0.0,0.0,69,0.00,,,0.00,WUHU216DAVISVP2,2013-09-24 08:31:00,
2013-09-24 03:35:00,61.2,50.9,29.78,North,0,0.0,0.0,69,0.00,,,0.00,WUHU216DAVISVP2,2013-09-24 08:35:00,
2013-09-24 03:36:00,61.2,51.1,29.78,SSW,194,0.0,0.0,69,0.00,,,0.00,WUHU216DAVISVP2,2013-09-24 08:36:00,
2013-09-24 03:40:00,61.2,50.6,29.78,SSW,203,0.0,3.0,68,0.00,,,0.00,WUHU216DAVISVP2,2013-09-24 08:40:00,
2013-09-24 03:41:00,61.2,50.7,29.78,SSW,194,0.0,3.0,68,0.00,,,0.00,WUHU216DAVISVP2,2013-09-24 08:41:00,
2013-09-24 03:45:00,61.1,50.8,29.78,SSW,203,0.0,3.0,69,0.00,,,0.00,WUHU216DAVISVP2,2013-09-24 08:45:00,
2013-09-24 03:46:00,61.0,50.9,29.79,SSW,194,0.0,3.0,69,0.00,,,0.00,WUHU216DAVISVP2,2013-09-24 08:46:00,
2013-09-24 03:50:00,60.9,50.7,29.79,North,0,0.0,3.0,69,0.00,,,0.00,WUHU216DAVISVP2,2013-09-24 08:50:00,
2013-09-24 03:51:00,60.9,50.8,29.79,SSW,194,0.0,0.0,69,0.00,,,0.00,WUHU216DAVISVP2,2013-09-24 08:51:00,
2013-09-24 03:55:00,60.8,50.6,29.79,North,0,0.0,3.0,69,0.00,,,0.00,WUHU216DAVISVP2,2013-09-24 08:55:00,
2013-09-24 03:56:00,60.8,50.7,29.79,SSW,192,0.0,0.0,69,0.00,,,0.00,WUHU216DAVISVP2,2013-09-24 08:56:00,
2013-09-24 04:00:00,60.7,50.5,29.80,SSW,203,0.0,3.0,69,0.00,,,0.00,WUHU216DAVISVP2,2013-09-24 09:00:00,
2013-09-24 04:01:00,60.7,50.6,29.80,SSW,192,0.0,3.0,69,0.00,,,0.00,WUHU216DAVISVP2,2013-09-24 09:01:00,
2013-09-24 04:05:00,60.7,50.5,29.80,North,0,0.0,3.0,69,0.00,,,0.00,WUHU216DAVISVP2,2013-09-24 09:05:00,
2013-09-24 04:06:00,60.7,50.6,29.80,SSW,192,0.0,3.0,69,0.00,,,0.00,WUHU216DAVISVP2,2013-09-24 09:06:00,
2013-09-24 04:10:00,60.6,50.4,29.80,SSW,203,1.0,5.0,69,0.00,,,0.00,WUHU216DAVISVP2,2013-09-24 09:10:00,
2013-09-24 04:11:00,60.6,50.5,29.80,South,187,0.0,5.0,69,0.00,,,0.00,WUHU216DAVISVP2,2013-09-24 09:11:00,
2013-09-24 04:15:00,60.6,50.4,29.80,North,0,0.0,5.0,69,0.00,,,0.00,WUHU216DAVISVP2,2013-09-24 09:15:00,
2013-09-24 04:16:00,60.5,50.4,29.80,South,188,0.0,5.0,69,0.00,,,0.00,WUHU216DAVISVP2,2013-09-24 09:16:00,
2013-09-24 04:20:00,60.5,50.7,29.79,North,0,0.0,5.0,70,0.00,,,0.00,WUHU216DAVISVP2,2013-09-24 09:20:00,
2013-09-24 04:21:00,60.5,50.8,29.80,South,189,0.0,0.0,70,0.00,,,0.00,WUHU216DAVISVP2,2013-09-24 09:21:00,
2013-09-24 04:25:00,60.4,50.6,29.80,North,0,0.0,0.0,70,0.00,,,0.00,WUHU216DAVISVP2,2013-09-24 09:25:00,
2013-09-24 04:26:00,60.4,50.7,29.80,South,188,0.0,0.0,70,0.00,,,0.00,WUHU216DAVISVP2,2013-09-24 09:26:00,
2013-09-24 04:30:00,60.3,50.5,29.80,North,0,0.0,0.0,70,0.00,,,0.00,WUHU216DAVISVP2,2013-09-24 09:30:00,
2013-09-24 04:31:00,60.3,50.6,29.80,South,190,0.0,0.0,70,0.00,,,0.00,WUHU216DAVISVP2,2013-09-24 09:31:00,
2013-09-24 04:35:00,60.2,50.4,29.80,North,0,0.0,0.0,70,0.00,,,0.00,WUHU216DAVISVP2,2013-09-24 09:35:00,
2013-09-24 04:36:00,60.2,50.5,29.80,SW,222,0.0,0.0,70,0.00,,,0.00,WUHU216DAVISVP2,2013-09-24 09:36:00,
2013-09-24 04:40:00,60.1,50.3,29.80,North,0,0.0,0.0,70,0.00,,,0.00,WUHU216DAVISVP2,2013-09-24 09:40:00,
2013-09-24 04:41:00,60.1,50.4,29.80,SW,221,0.0,0.0,70,0.00,,,0.00,WUHU216DAVISVP2,2013-09-24 09:41:00,
2013-09-24 04:45:00,60.0,50.2,29.80,North,0,0.0,0.0,70,0.00,,,0.00,WUHU216DAVISVP2,2013-09-24 09:45:00,
2013-09-24 04:46:00,60.0,50.3,29.80,SW,222,0.0,0.0,70,0.00,,,0.00,WUHU216DAVISVP2,2013-09-24 09:46:00,
2013-09-24 04:50:00,59.8,50.4,29.80,North,0,0.0,0.0,71,0.00,,,0.00,WUHU216DAVISVP2,2013-09-24 09:50:00,
2013-09-24 04:51:00,59.8,50.1,29.80,SW,222,0.0,0.0,70,0.00,,,0.00,WUHU216DAVISVP2,2013-09-24 09:51:00,
2013-09-24 04:55:00,59.8,50.4,29.80,North,0,0.0,0.0,71,0.00,,,0.00,WUHU216DAVISVP2,2013-09-24 09:55:00,
2013-09-24 04:56:00,59.8,50.5,29.80,SW,222,0.0,0.0,71,0.00,,,0.00,WUHU216DAVISVP2,2013-09-24 09:56:00,
2013-09-24 05:00:00,59.6,50.2,29.79,North,0,0.0,0.0,71,0.00,,,0.00,WUHU216DAVISVP2,2013-09-24 10:00:00,
2013-09-24 05:01:00,59.6,50.3,29.79,SW,221,0.0,0.0,71,0.00,,,0.00,WUHU216DAVISVP2,2013-09-24 10:01:00,
2013-09-24 05:05:00,59.5,50.5,29.79,North,0,0.0,0.0,72,0.00,,,0.00,WUHU216DAVISVP2,2013-09-24 10:05:00,
2013-09-24 05:06:00,59.4,50.5,29.79,SW,222,0.0,0.0,72,0.00,,,0.00,WUHU216DAVISVP2,2013-09-24 10:06:00,
2013-09-24 05:10:00,59.3,50.3,29.79,North,0,0.0,0.0,72,0.00,,,0.00,WUHU216DAVISVP2,2013-09-24 10:10:00,
2013-09-24 05:11:00,59.2,50.3,29.80,SW,222,0.0,0.0,72,0.00,,,0.00,WUHU216DAVISVP2,2013-09-24 10:11:00,
2013-09-24 05:15:00,59.0,50.4,29.80,North,0,0.0,0.0,73,0.00,,,0.00,WUHU216DAVISVP2,2013-09-24 10:15:00,
2013-09-24 05:16:00,59.0,50.5,29.80,SW,222,0.0,0.0,73,0.00,,,0.00,WUHU216DAVISVP2,2013-09-24 10:16:00,
2013-09-24 05:20:00,59.0,51.1,29.80,North,0,0.0,0.0,75,0.00,,,0.00,WUHU216DAVISVP2,2013-09-24 10:20:00,
2013-09-24 05:21:00,59.0,51.2,29.80,SW,222,0.0,0.0,75,0.00,,,0.00,WUHU216DAVISVP2,2013-09-24 10:21:00,
2013-09-24 05:25:00,59.0,51.8,29.80,North,0,0.0,0.0,77,0.00,,,0.00,WUHU216DAVISVP2,2013-09-24 10:25:00,
2013-09-24 05:26:00,59.0,51.9,29.80,SW,222,0.0,0.0,77,0.00,,,0.00,WUHU216DAVISVP2,2013-09-24 10:26:00,
2013-09-24 05:30:00,59.0,52.1,29.80,North,0,0.0,0.0,78,0.00,,,0.00,WUHU216DAVISVP2,2013-09-24 10:30:00,
2013-09-24 05:31:00,59.0,52.2,29.80,SW,233,0.0,0.0,78,0.00,,,0.00,WUHU216DAVISVP2,2013-09-24 10:31:00,
2013-09-24 05:35:00,58.9,52.4,29.80,North,0,0.0,0.0,79,0.00,,,0.00,WUHU216DAVISVP2,2013-09-24 10:35:00,
2013-09-24 05:36:00,58.9,52.5,29.80,SW,233,0.0,0.0,79,0.00,,,0.00,WUHU216DAVISVP2,2013-09-24 10:36:00,
2013-09-24 05:40:00,58.6,52.1,29.80,North,0,0.0,0.0,79,0.00,,,0.00,WUHU216DAVISVP2,2013-09-24 10:40:00,
2013-09-24 05:41:00,58.6,52.2,29.80,SW,233,0.0,0.0,79,0.00,,,0.00,WUHU216DAVISVP2,2013-09-24 10:41:00,
2013-09-24 05:45:00,58.5,52.4,29.81,North,0,0.0,0.0,80,0.00,,,0.00,WUHU216DAVISVP2,2013-09-24 10:45:00,
2013-09-24 05:46:00,58.4,52.3,29.81,SW,233,0.0,0.0,80,0.00,,,0.00,WUHU216DAVISVP2,2013-09-24 10:46:00,
2013-09-24 05:50:00,58.4,52.3,29.81,North,0,0.0,0.0,80,0.00,,,0.00,WUHU216DAVISVP2,2013-09-24 10:50:00,
2013-09-24 05:51:00,58.3,52.5,29.81,SW,233,0.0,0.0,81,0.00,,,0.00,WUHU216DAVISVP2,2013-09-24 10:51:00,
2013-09-24 05:55:00,58.2,52.4,29.81,North,0,0.0,0.0,81,0.00,,,0.00,WUHU216DAVISVP2,2013-09-24 10:55:00,
2013-09-24 05:56:00,58.2,52.4,29.81,SW,233,0.0,0.0,81,0.00,,,0.00,WUHU216DAVISVP2,2013-09-24 10:56:00,
2013-09-24 06:00:00,58.1,52.3,29.80,North,0,0.0,0.0,81,0.00,,,0.00,WUHU216DAVISVP2,2013-09-24 11:00:00,
2013-09-24 06:01:00,58.1,52.3,29.81,SW,233,0.0,0.0,81,0.00,,,0.00,WUHU216DAVISVP2,2013-09-24 11:01:00,
2013-09-24 06:05:00,58.0,52.5,29.81,North,0,0.0,0.0,82,0.00,,,0.00,WUHU216DAVISVP2,2013-09-24 11:05:00,
2013-09-24 06:06:00,58.0,52.6,29.81,SW,233,0.0,0.0,82,0.00,,,0.00,WUHU216DAVISVP2,2013-09-24 11:06:00,
2013-09-24 06:10:00,58.0,52.5,29.81,North,0,0.0,0.0,82,0.00,,,0.00,WUHU216DAVISVP2,2013-09-24 11:10:00,
2013-09-24 06:11:00,57.9,52.5,29.81,SW,233,0.0,0.0,82,0.00,,,0.00,WUHU216DAVISVP2,2013-09-24 11:11:00,
2013-09-24 06:15:00,57.9,52.4,29.82,North,0,0.0,0.0,82,0.00,,,0.00,WUHU216DAVISVP2,2013-09-24 11:15:00,
2013-09-24 06:16:00,57.9,52.5,29.82,SW,233,0.0,0.0,82,0.00,,,0.00,WUHU216DAVISVP2,2013-09-24 11:16:00,
2013-09-24 06:20:00,57.9,52.8,29.82,North,0,0.0,0.0,83,0.00,,,0.00,WUHU216DAVISVP2,2013-09-24 11:20:00,
2013-09-24 06:21:00,57.8,52.7,29.82,SW,233,0.0,0.0,83,0.00,,,0.00,WUHU216DAVISVP2,2013-09-24 11:21:00,
2013-09-24 06:25:00,57.8,52.7,29.82,North,0,0.0,0.0,83,0.00,,,0.00,WUHU216DAVISVP2,2013-09-24 11:25:00,
2013-09-24 06:26:00,57.8,52.7,29.82,SW,233,0.0,0.0,83,0.00,,,0.00,WUHU216DAVISVP2,2013-09-24 11:26:00,
2013-09-24 06:30:00,57.8,52.7,29.83,North,0,0.0,0.0,83,0.00,,,0.00,WUHU216DAVISVP2,2013-09-24 11:30:00,
2013-09-24 06:31:00,57.8,52.7,29.82,SW,233,0.0,0.0,83,0.00,,,0.00,WUHU216DAVISVP2,2013-09-24 11:31:00,
2013-09-24 06:35:00,57.8,52.7,29.82,North,0,0.0,0.0,83,0.00,,,0.00,WUHU216DAVISVP2,2013-09-24 11:35:00,
2013-09-24 06:36:00,57.8,52.7,29.82,SW,233,0.0,0.0,83,0.00,,,0.00,WUHU216DAVISVP2,2013-09-24 11:36:00,
2013-09-24 06:40:00,57.8,52.7,29.83,North,0,0.0,0.0,83,0.00,,,0.00,WUHU216DAVISVP2,2013-09-24 11:40:00,
2013-09-24 06:41:00,57.8,52.7,29.83,SW,233,0.0,0.0,83,0.00,,,0.00,WUHU216DAVISVP2,2013-09-24 11:41:00,
2013-09-24 06:45:00,57.8,52.7,29.83,North,0,0.0,0.0,83,0.00,,,0.00,WUHU216DAVISVP2,2013-09-24 11:45:00,
2013-09-24 06:46:00,57.9,52.8,29.83,SW,233,0.0,0.0,83,0.00,,,0.00,WUHU216DAVISVP2,2013-09-24 11:46:00,
2013-09-24 06:50:00,57.9,52.8,29.83,North,0,0.0,0.0,83,0.00,,,0.00,WUHU216DAVISVP2,2013-09-24 11:50:00,
2013-09-24 06:51:00,57.9,52.8,29.83,SW,233,0.0,0.0,83,0.00,,,0.00,WUHU216DAVISVP2,2013-09-24 11:51:00,
2013-09-24 06:55:00,57.9,52.8,29.83,North,0,0.0,0.0,83,0.00,,,0.00,WUHU216DAVISVP2,2013-09-24 11:55:00,
2013-09-24 06:56:00,57.9,52.8,29.82,SW,233,0.0,0.0,83,0.00,,,0.00,WUHU216DAVISVP2,2013-09-24 11:56:00,
2013-09-24 07:00:00,58.0,52.9,29.82,North,0,0.0,0.0,83,0.00,,,0.00,WUHU216DAVISVP2,2013-09-24 12:00:00,
2013-09-24 07:01:00,58.0,52.9,29.82,SW,233,0.0,0.0,83,0.00,,,0.00,WUHU216DAVISVP2,2013-09-24 12:01:00,
2013-09-24 07:05:00,58.0,52.9,29.83,North,0,0.0,0.0,83,0.00,,,0.00,WUHU216DAVISVP2,2013-09-24 12:05:00,
2013-09-24 07:06:00,58.0,52.9,29.82,SW,233,0.0,0.0,83,0.00,,,0.00,WUHU216DAVISVP2,2013-09-24 12:06:00,
2013-09-24 07:10:00,57.9,52.8,29.83,North,0,0.0,0.0,83,0.00,,,0.00,WUHU216DAVISVP2,2013-09-24 12:10:00,
2013-09-24 07:11:00,57.9,52.8,29.83,SW,233,0.0,0.0,83,0.00,,,0.00,WUHU216DAVISVP2,2013-09-24 12:11:00,
2013-09-24 07:15:00,57.9,52.8,29.83,North,0,0.0,0.0,83,0.00,,,0.00,WUHU216DAVISVP2,2013-09-24 12:15:00,
2013-09-24 07:16:00,57.8,52.7,29.83,SW,233,0.0,0.0,83,0.00,,,0.00,WUHU216DAVISVP2,2013-09-24 12:16:00,
2013-09-24 07:20:00,57.8,52.7,29.83,North,0,0.0,0.0,83,0.00,,,0.00,WUHU216DAVISVP2,2013-09-24 12:20:00,
2013-09-24 07:21:00,57.8,52.7,29.83,SW,233,0.0,0.0,83,0.00,,,0.00,WUHU216DAVISVP2,2013-09-24 12:21:00,
2013-09-24 07:25:00,57.8,52.7,29.83,North,0,0.0,0.0,83,0.00,,,0.00,WUHU216DAVISVP2,2013-09-24 12:25:00,
2013-09-24 07:26:00,57.8,52.7,29.83,SW,233,0.0,0.0,83,0.00,,,0.00,WUHU216DAVISVP2,2013-09-24 12:26:00,
2013-09-24 07:30:00,57.8,52.7,29.83,North,0,0.0,0.0,83,0.00,,,0.00,WUHU216DAVISVP2,2013-09-24 12:30:00,
2013-09-24 07:31:00,57.8,52.7,29.83,SW,233,0.0,0.0,83,0.00,,,0.00,WUHU216DAVISVP2,2013-09-24 12:31:00,
2013-09-24 07:35:00,57.7,52.6,29.83,North,0,0.0,0.0,83,0.00,,,0.00,WUHU216DAVISVP2,2013-09-24 12:35:00,
2013-09-24 07:36:00,57.7,52.6,29.83,SW,233,0.0,0.0,83,0.00,,,0.00,WUHU216DAVISVP2,2013-09-24 12:36:00,
2013-09-24 07:40:00,57.7,52.6,29.83,North,0,0.0,0.0,83,0.00,,,0.00,WUHU216DAVISVP2,2013-09-24 12:40:00,
2013-09-24 07:41:00,57.7,52.6,29.83,SW,233,0.0,0.0,83,0.00,,,0.00,WUHU216DAVISVP2,2013-09-24 12:41:00,
2013-09-24 07:45:00,57.7,52.6,29.84,North,0,0.0,0.0,83,0.00,,,0.00,WUHU216DAVISVP2,2013-09-24 12:45:00,
2013-09-24 07:46:00,57.7,52.6,29.83,SW,233,0.0,0.0,83,0.00,,,0.00,WUHU216DAVISVP2,2013-09-24 12:46:00,
2013-09-24 07:50:00,57.8,52.7,29.84,North,0,0.0,0.0,83,0.00,,,0.00,WUHU216DAVISVP2,2013-09-24 12:50:00,
2013-09-24 07:51:00,57.8,52.7,29.84,SW,233,0.0,0.0,83,0.00,,,0.00,WUHU216DAVISVP2,2013-09-24 12:51:00,
2013-09-24 07:55:00,57.8,52.7,29.84,North,0,0.0,0.0,83,0.00,,,0.00,WUHU216DAVISVP2,2013-09-24 12:55:00,
2013-09-24 07:56:00,57.8,52.7,29.84,SW,233,0.0,0.0,83,0.00,,,0.00,WUHU216DAVISVP2,2013-09-24 12:56:00,
2013-09-24 08:00:00,57.9,52.8,29.84,North,0,0.0,0.0,83,0.00,,,0.00,WUHU216DAVISVP2,2013-09-24 13:00:00,
2013-09-24 08:01:00,57.9,52.8,29.84,SW,233,0.0,0.0,83,0.00,,,0.00,WUHU216DAVISVP2,2013-09-24 13:01:00,
2013-09-24 08:05:00,57.9,52.8,29.84,North,0,0.0,0.0,83,0.00,,,0.00,WUHU216DAVISVP2,2013-09-24 13:05:00,
2013-09-24 08:06:00,57.9,52.8,29.84,SW,233,0.0,0.0,83,0.00,,,0.00,WUHU216DAVISVP2,2013-09-24 13:06:00,
2013-09-24 08:10:00,57.9,52.8,29.84,North,0,0.0,0.0,83,0.00,,,0.00,WUHU216DAVISVP2,2013-09-24 13:10:00,
2013-09-24 08:11:00,57.9,52.8,29.84,SW,234,0.0,0.0,83,0.00,,,0.00,WUHU216DAVISVP2,2013-09-24 13:11:00,
2013-09-24 08:15:00,58.0,52.9,29.84,North,0,0.0,0.0,83,0.00,,,0.00,WUHU216DAVISVP2,2013-09-24 13:15:00,
2013-09-24 08:16:00,58.0,52.9,29.84,SW,233,0.0,0.0,83,0.00,,,0.00,WUHU216DAVISVP2,2013-09-24 13:16:00,
2013-09-24 08:20:00,58.1,53.0,29.84,North,0,0.0,0.0,83,0.00,,,0.00,WUHU216DAVISVP2,2013-09-24 13:20:00,
2013-09-24 08:21:00,58.1,53.0,29.84,SW,233,0.0,0.0,83,0.00,,,0.00,WUHU216DAVISVP2,2013-09-24 13:21:00,
2013-09-24 08:25:00,58.2,53.1,29.84,North,0,0.0,0.0,83,0.00,,,0.00,WUHU216DAVISVP2,2013-09-24 13:25:00,
2013-09-24 08:26:00,58.2,53.1,29.84,SW,233,0.0,0.0,83,0.00,,,0.00,WUHU216DAVISVP2,2013-09-24 13:26:00,
2013-09-24 08:30:00,58.4,53.3,29.84,North,0,0.0,0.0,83,0.00,,,0.00,WUHU216DAVISVP2,2013-09-24 13:30:00,
2013-09-24 08:31:00,58.4,53.3,29.84,SW,233,0.0,0.0,83,0.00,,,0.00,WUHU216DAVISVP2,2013-09-24 13:31:00,
2013-09-24 08:35:00,58.5,53.0,29.84,North,0,0.0,0.0,82,0.00,,,0.00,WUHU216DAVISVP2,2013-09-24 13:35:00,
2013-09-24 08:36:00,58.6,53.2,29.84,SW,233,0.0,0.0,82,0.00,,,0.00,WUHU216DAVISVP2,2013-09-24 13:36:00,
2013-09-24 08:40:00,58.9,53.4,29.85,North,0,0.0,0.0,82,0.00,,,0.00,WUHU216DAVISVP2,2013-09-24 13:40:00,
2013-09-24 08:41:00,59.0,53.5,29.85,SW,233,0.0,0.0,82,0.00,,,0.00,WUHU216DAVISVP2,2013-09-24 13:41:00,
2013-09-24 08:45:00,59.0,53.5,29.84,North,0,0.0,0.0,82,0.00,,,0.00,WUHU216DAVISVP2,2013-09-24 13:45:00,
2013-09-24 08:46:00,59.0,53.5,29.84,SW,233,0.0,0.0,82,0.00,,,0.00,WUHU216DAVISVP2,2013-09-24 13:46:00,
2013-09-24 08:50:00,59.0,53.2,29.85,North,0,0.0,0.0,81,0.00,,,0.00,WUHU216DAVISVP2,2013-09-24 13:50:00,
2013-09-24 08:51:00,59.0,53.2,29.85,SW,233,0.0,0.0,81,0.00,,,0.00,WUHU216DAVISVP2,2013-09-24 13:51:00,
2013-09-24 08:55:00,59.1,53.3,29.85,North,0,0.0,0.0,81,0.00,,,0.00,WUHU216DAVISVP2,2013-09-24 13:55:00,
2013-09-24 08:56:00,59.2,53.4,29.85,SW,233,0.0,0.0,81,0.00,,,0.00,WUHU216DAVISVP2,2013-09-24 13:56:00,
2013-09-24 09:00:00,59.4,53.2,29.85,North,0,0.0,0.0,80,0.00,,,0.00,WUHU216DAVISVP2,2013-09-24 14:00:00,
2013-09-24 09:01:00,59.4,53.3,29.85,SW,233,0.0,0.0,80,0.00,,,0.00,WUHU216DAVISVP2,2013-09-24 14:01:00,
2013-09-24 09:05:00,59.5,53.3,29.86,North,0,0.0,0.0,80,0.00,,,0.00,WUHU216DAVISVP2,2013-09-24 14:05:00,
2013-09-24 09:06:00,59.6,53.5,29.86,SW,233,0.0,0.0,80,0.00,,,0.00,WUHU216DAVISVP2,2013-09-24 14:06:00,
2013-09-24 09:10:00,59.8,53.3,29.86,North,0,0.0,0.0,79,0.00,,,0.00,WUHU216DAVISVP2,2013-09-24 14:10:00,
2013-09-24 09:11:00,59.8,53.3,29.86,SW,233,0.0,0.0,79,0.00,,,0.00,WUHU216DAVISVP2,2013-09-24 14:11:00,
2013-09-24 09:15:00,60.0,53.5,29.86,North,0,0.0,0.0,79,0.00,,,0.00,WUHU216DAVISVP2,2013-09-24 14:15:00,
2013-09-24 09:16:00,60.1,53.6,29.86,SW,233,0.0,0.0,79,0.00,,,0.00,WUHU216DAVISVP2,2013-09-24 14:16:00,
2013-09-24 09:20:00,60.3,53.4,29.86,North,0,0.0,0.0,78,0.00,,,0.00,WUHU216DAVISVP2,2013-09-24 14:20:00,
2013-09-24 09:21:00,60.3,53.5,29.86,SW,233,0.0,0.0,78,0.00,,,0.00,WUHU216DAVISVP2,2013-09-24 14:21:00,
2013-09-24 09:25:00,60.5,53.6,29.86,North,0,0.0,0.0,78,0.00,,,0.00,WUHU216DAVISVP2,2013-09-24 14:25:00,
2013-09-24 09:26:00,60.6,53.4,29.86,SW,234,0.0,0.0,77,0.00,,,0.00,WUHU216DAVISVP2,2013-09-24 14:26:00,
2013-09-24 09:30:00,60.9,53.6,29.86,North,0,0.0,0.0,77,0.00,,,0.00,WUHU216DAVISVP2,2013-09-24 14:30:00,
2013-09-24 09:31:00,60.9,53.7,29.87,SW,233,0.0,0.0,77,0.00,,,0.00,WUHU216DAVISVP2,2013-09-24 14:31:00,
2013-09-24 09:35:00,61.2,53.6,29.87,North,0,0.0,0.0,76,0.00,,,0.00,WUHU216DAVISVP2,2013-09-24 14:35:00,
2013-09-24 09:36:00,61.3,53.8,29.87,SW,233,0.0,0.0,76,0.00,,,0.00,WUHU216DAVISVP2,2013-09-24 14:36:00,
2013-09-24 09:40:00,61.5,53.5,29.87,North,0,0.0,0.0,75,0.00,,,0.00,WUHU216DAVISVP2,2013-09-24 14:40:00,
2013-09-24 09:41:00,61.6,53.7,29.87,SW,233,0.0,0.0,75,0.00,,,0.00,WUHU216DAVISVP2,2013-09-24 14:41:00,
2013-09-24 09:45:00,61.8,53.8,29.87,North,0,0.0,0.0,75,0.00,,,0.00,WUHU216DAVISVP2,2013-09-24 14:45:00,
2013-09-24 09:46:00,61.8,53.9,29.87,SW,233,0.0,0.0,75,0.00,,,0.00,WUHU216DAVISVP2,2013-09-24 14:46:00,
2013-09-24 09:50:00,62.0,53.6,29.87,North,0,0.0,0.0,74,0.00,,,0.00,WUHU216DAVISVP2,2013-09-24 14:50:00,
2013-09-24 09:51:00,62.1,53.8,29.87,SW,233,0.0,0.0,74,0.00,,,0.00,WUHU216DAVISVP2,2013-09-24 14:51:00,
2013-09-24 09:55:00,62.3,53.5,29.87,North,0,0.0,0.0,73,0.00,,,0.00,WUHU216DAVISVP2,2013-09-24 14:55:00,
2013-09-24 09:56:00,62.3,53.7,29.87,SW,233,0.0,0.0,73,0.00,,,0.00,WUHU216DAVISVP2,2013-09-24 14:56:00,
2013-09-24 10:00:00,62.3,53.5,29.88,North,0,0.0,0.0,73,0.00,,,0.00,WUHU216DAVISVP2,2013-09-24 15:00:00,
2013-09-24 10:01:00,62.3,53.7,29.88,SW,233,0.0,0.0,73,0.00,,,0.00,WUHU216DAVISVP2,2013-09-24 15:01:00,
2013-09-24 10:05:00,62.3,53.5,29.88,North,0,0.0,0.0,73,0.00,,,0.00,WUHU216DAVISVP2,2013-09-24 15:05:00,
2013-09-24 10:06:00,62.4,53.8,29.88,SW,233,0.0,0.0,73,0.00,,,0.00,WUHU216DAVISVP2,2013-09-24 15:06:00,
2013-09-24 10:10:00,62.5,53.7,29.88,North,0,0.0,0.0,73,0.00,,,0.00,WUHU216DAVISVP2,2013-09-24 15:10:00,
2013-09-24 10:11:00,62.5,53.9,29.88,SW,233,0.0,0.0,73,0.00,,,0.00,WUHU216DAVISVP2,2013-09-24 15:11:00,
2013-09-24 10:15:00,62.7,53.9,29.88,North,0,0.0,0.0,73,0.00,,,0.00,WUHU216DAVISVP2,2013-09-24 15:15:00,
2013-09-24 10:16:00,62.7,54.0,29.88,SW,233,0.0,0.0,73,0.00,,,0.00,WUHU216DAVISVP2,2013-09-24 15:16:00,
2013-09-24 10:20:00,62.8,54.0,29.88,North,0,0.0,0.0,73,0.00,,,0.00,WUHU216DAVISVP2,2013-09-24 15:20:00,
2013-09-24 10:21:00,62.8,54.1,29.88,SW,234,0.0,0.0,73,0.00,,,0.00,WUHU216DAVISVP2,2013-09-24 15:21:00,
2013-09-24 10:25:00,63.0,54.2,29.88,North,0,0.0,0.0,73,0.00,,,0.00,WUHU216DAVISVP2,2013-09-24 15:25:00,
2013-09-24 10:26:00,63.0,54.3,29.88,SW,233,0.0,0.0,73,0.00,,,0.00,WUHU216DAVISVP2,2013-09-24 15:26:00,
2013-09-24 10:30:00,63.2,54.4,29.88,North,0,0.0,0.0,73,0.00,,,0.00,WUHU216DAVISVP2,2013-09-24 15:30:00,
2013-09-24 10:31:00,63.2,54.5,29.88,SW,233,0.0,0.0,73,0.00,,,0.00,WUHU216DAVISVP2,2013-09-24 15:31:00,
2013-09-24 10:35:00,63.4,54.2,29.89,SW,225,0.0,1.0,72,0.00,,,0.00,WUHU216DAVISVP2,2013-09-24 15:35:00,
2013-09-24 10:36:00,63.4,54.4,29.89,SW,233,0.0,1.0,72,0.00,,,0.00,WUHU216DAVISVP2,2013-09-24 15:36:00,
2013-09-24 10:40:00,63.4,53.8,29.89,North,0,0.0,1.0,71,0.00,,,0.00,WUHU216DAVISVP2,2013-09-24 15:40:00,
2013-09-24 10:41:00,63.3,53.9,29.89,SW,233,0.0,1.0,71,0.00,,,0.00,WUHU216DAVISVP2,2013-09-24 15:41:00,
2013-09-24 10:45:00,63.1,53.9,29.89,North,0,0.0,1.0,72,0.00,,,0.00,WUHU216DAVISVP2,2013-09-24 15:45:00,
2013-09-24 10:46:00,63.1,54.1,29.89,SW,233,0.0,0.0,72,0.00,,,0.00,WUHU216DAVISVP2,2013-09-24 15:46:00,
2013-09-24 10:50:00,63.2,54.4,29.89,North,0,0.0,0.0,73,0.00,,,0.00,WUHU216DAVISVP2,2013-09-24 15:50:00,
2013-09-24 10:51:00,63.3,54.6,29.89,SW,233,0.0,0.0,73,0.00,,,0.00,WUHU216DAVISVP2,2013-09-24 15:51:00,
2013-09-24 10:55:00,63.4,54.6,29.89,North,0,0.0,0.0,73,0.00,,,0.00,WUHU216DAVISVP2,2013-09-24 15:55:00,
2013-09-24 10:56:00,63.5,54.4,29.89,SW,233,0.0,0.0,72,0.00,,,0.00,WUHU216DAVISVP2,2013-09-24 15:56:00,
2013-09-24 11:00:00,63.6,54.4,29.89,North,0,0.0,0.0,72,0.00,,,0.00,WUHU216DAVISVP2,2013-09-24 16:00:00,
2013-09-24 11:01:00,63.7,54.6,29.89,SW,233,0.0,0.0,72,0.00,,,0.00,WUHU216DAVISVP2,2013-09-24 16:01:00,
2013-09-24 11:05:00,63.7,54.5,29.89,North,0,0.0,0.0,72,0.00,,,0.00,WUHU216DAVISVP2,2013-09-24 16:05:00,
2013-09-24 11:06:00,63.7,54.3,29.89,SW,233,0.0,0.0,71,0.00,,,0.00,WUHU216DAVISVP2,2013-09-24 16:06:00,
2013-09-24 11:10:00,63.8,54.6,29.89,North,0,0.0,0.0,72,0.00,,,0.00,WUHU216DAVISVP2,2013-09-24 16:10:00,
2013-09-24 11:11:00,63.8,54.7,29.89,SW,234,0.0,0.0,72,0.00,,,0.00,WUHU216DAVISVP2,2013-09-24 16:11:00,
2013-09-24 11:15:00,63.8,54.6,29.89,North,0,0.0,0.0,72,0.00,,,0.00,WUHU216DAVISVP2,2013-09-24 16:15:00,
2013-09-24 11:16:00,63.8,54.4,29.88,SW,233,0.0,0.0,71,0.00,,,0.00,WUHU216DAVISVP2,2013-09-24 16:16:00,
2013-09-24 11:20:00,63.4,54.2,29.88,North,0,0.0,0.0,72,0.00,,,0.00,WUHU216DAVISVP2,2013-09-24 16:20:00,
2013-09-24 11:21:00,63.4,54.4,29.88,SW,233,0.0,0.0,72,0.00,,,0.00,WUHU216DAVISVP2,2013-09-24 16:21:00,
2013-09-24 11:25:00,63.4,54.2,29.88,North,0,0.0,0.0,72,0.00,,,0.00,WUHU216DAVISVP2,2013-09-24 16:25:00,
2013-09-24 11:26:00,63.4,54.4,29.88,SW,233,0.0,0.0,72,0.00,,,0.00,WUHU216DAVISVP2,2013-09-24 16:26:00,
2013-09-24 11:30:00,63.5,54.7,29.89,North,0,0.0,0.0,73,0.00,,,0.00,WUHU216DAVISVP2,2013-09-24 16:30:00,
2013-09-24 11:31:00,63.6,54.5,29.89,SW,233,0.0,0.0,72,0.00,,,0.00,WUHU216DAVISVP2,2013-09-24 16:31:00,
2013-09-24 11:35:00,63.8,54.6,29.89,North,0,0.0,0.0,72,0.00,,,0.00,WUHU216DAVISVP2,2013-09-24 16:35:00,
2013-09-24 11:36:00,63.8,54.7,29.88,SW,233,0.0,0.0,72,0.00,,,0.00,WUHU216DAVISVP2,2013-09-24 16:36:00,
2013-09-24 11:40:00,64.1,54.9,29.88,North,0,0.0,0.0,72,0.00,,,0.00,WUHU216DAVISVP2,2013-09-24 16:40:00,
2013-09-24 11:41:00,64.1,55.0,29.88,SW,233,0.0,0.0,72,0.00,,,0.00,WUHU216DAVISVP2,2013-09-24 16:41:00,
2013-09-24 11:45:00,64.3,54.7,29.88,North,0,0.0,0.0,71,0.00,,,0.00,WUHU216DAVISVP2,2013-09-24 16:45:00,
2013-09-24 11:46:00,64.3,54.8,29.88,SW,233,0.0,0.0,71,0.00,,,0.00,WUHU216DAVISVP2,2013-09-24 16:46:00,
2013-09-24 11:50:00,64.3,54.7,29.88,North,0,0.0,0.0,71,0.00,,,0.00,WUHU216DAVISVP2,2013-09-24 16:50:00,
2013-09-24 11:51:00,64.3,54.8,29.88,SW,233,0.0,0.0,71,0.00,,,0.00,WUHU216DAVISVP2,2013-09-24 16:51:00,
2013-09-24 11:55:00,64.3,54.7,29.89,North,0,0.0,0.0,71,0.00,,,0.00,WUHU216DAVISVP2,2013-09-24 16:55:00,
2013-09-24 11:56:00,64.3,54.8,29.89,SW,233,0.0,0.0,71,0.00,,,0.00,WUHU216DAVISVP2,2013-09-24 16:56:00,
2013-09-24 12:00:00,64.7,54.7,29.89,North,0,0.0,0.0,70,0.00,,,0.00,WUHU216DAVISVP2,2013-09-24 17:00:00,
2013-09-24 12:01:00,64.8,55.3,29.89,SW,233,0.0,0.0,71,0.00,,,0.00,WUHU216DAVISVP2,2013-09-24 17:01:00,
2013-09-24 12:05:00,65.3,55.3,29.89,North,0,0.0,0.0,70,0.00,,,0.00,WUHU216DAVISVP2,2013-09-24 17:05:00,
2013-09-24 12:06:00,65.5,55.6,29.89,SW,233,0.0,0.0,70,0.00,,,0.00,WUHU216DAVISVP2,2013-09-24 17:06:00,
2013-09-24 12:10:00,66.1,55.6,29.89,North,0,0.0,0.0,69,0.00,,,0.00,WUHU216DAVISVP2,2013-09-24 17:10:00,
2013-09-24 12:11:00,66.2,55.9,29.89,SW,233,0.0,0.0,69,0.00,,,0.00,WUHU216DAVISVP2,2013-09-24 17:11:00,
2013-09-24 12:15:00,66.5,55.6,29.89,North,0,0.0,0.0,68,0.00,,,0.00,WUHU216DAVISVP2,2013-09-24 17:15:00,
2013-09-24 12:16:00,66.6,55.9,29.89,SW,233,0.0,0.0,68,0.00,,,0.00,WUHU216DAVISVP2,2013-09-24 17:16:00,
2013-09-24 12:20:00,66.6,55.7,29.89,North,0,0.0,0.0,68,0.00,,,0.00,WUHU216DAVISVP2,2013-09-24 17:20:00,
2013-09-24 12:21:00,66.6,55.9,29.89,SW,233,0.0,0.0,68,0.00,,,0.00,WUHU216DAVISVP2,2013-09-24 17:21:00,
2013-09-24 12:25:00,66.6,55.7,29.89,North,0,0.0,0.0,68,0.00,,,0.00,WUHU216DAVISVP2,2013-09-24 17:25:00,
2013-09-24 12:26:00,66.6,55.9,29.89,SW,233,0.0,0.0,68,0.00,,,0.00,WUHU216DAVISVP2,2013-09-24 17:26:00,
2013-09-24 12:30:00,66.1,55.2,29.89,North,0,0.0,0.0,68,0.00,,,0.00,WUHU216DAVISVP2,2013-09-24 17:30:00,
2013-09-24 12:31:00,66.1,55.4,29.89,SW,233,0.0,0.0,68,0.00,,,0.00,WUHU216DAVISVP2,2013-09-24 17:31:00,
2013-09-24 12:35:00,66.1,55.2,29.89,North,0,0.0,0.0,68,0.00,,,0.00,WUHU216DAVISVP2,2013-09-24 17:35:00,
2013-09-24 12:36:00,66.1,55.4,29.89,SW,233,0.0,0.0,68,0.00,,,0.00,WUHU216DAVISVP2,2013-09-24 17:36:00,
2013-09-24 12:40:00,66.3,55.4,29.88,North,0,0.0,0.0,68,0.00,,,0.00,WUHU216DAVISVP2,2013-09-24 17:40:00,
2013-09-24 12:41:00,66.3,55.6,29.88,SW,233,0.0,0.0,68,0.00,,,0.00,WUHU216DAVISVP2,2013-09-24 17:41:00,
2013-09-24 12:45:00,66.4,55.5,29.88,North,0,0.0,0.0,68,0.00,,,0.00,WUHU216DAVISVP2,2013-09-24 17:45:00,
2013-09-24 12:46:00,66.4,55.7,29.88,SW,233,0.0,0.0,68,0.00,,,0.00,WUHU216DAVISVP2,2013-09-24 17:46:00,
2013-09-24 12:50:00,66.5,55.2,29.88,North,0,0.0,0.0,67,0.00,,,0.00,WUHU216DAVISVP2,2013-09-24 17:50:00,
2013-09-24 12:51:00,66.6,55.5,29.88,SW,233,0.0,0.0,67,0.00,,,0.00,WUHU216DAVISVP2,2013-09-24 17:51:00,
2013-09-24 12:55:00,66.7,55.4,29.88,North,0,0.0,0.0,67,0.00,,,0.00,WUHU216DAVISVP2,2013-09-24 17:55:00,
2013-09-24 12:56:00,66.8,55.7,29.88,SW,233,0.0,0.0,67,0.00,,,0.00,WUHU216DAVISVP2,2013-09-24 17:56:00,
2013-09-24 13:00:00,66.9,55.6,29.89,North,0,0.0,0.0,67,0.00,,,0.00,WUHU216DAVISVP2,2013-09-24 18:00:00,
2013-09-24 13:01:00,66.9,55.8,29.89,SW,233,0.0,0.0,67,0.00,,,0.00,WUHU216DAVISVP2,2013-09-24 18:01:00,
2013-09-24 13:05:00,67.0,55.3,29.88,North,0,0.0,0.0,66,0.00,,,0.00,WUHU216DAVISVP2,2013-09-24 18:05:00,
2013-09-24 13:06:00,67.0,55.4,29.88,SW,234,0.0,0.0,66,0.00,,,0.00,WUHU216DAVISVP2,2013-09-24 18:06:00,
2013-09-24 13:10:00,67.0,55.3,29.88,North,0,0.0,0.0,66,0.00,,,0.00,WUHU216DAVISVP2,2013-09-24 18:10:00,
2013-09-24 13:11:00,67.1,55.5,29.88,SW,233,0.0,0.0,66,0.00,,,0.00,WUHU216DAVISVP2,2013-09-24 18:11:00,
2013-09-24 13:15:00,67.2,55.5,29.88,North,0,0.0,0.0,66,0.00,,,0.00,WUHU216DAVISVP2,2013-09-24 18:15:00,
2013-09-24 13:16:00,67.1,55.5,29.88,SW,233,0.0,0.0,66,0.00,,,0.00,WUHU216DAVISVP2,2013-09-24 18:16:00,
2013-09-24 13:20:00,66.8,55.5,29.88,North,0,0.0,0.0,67,0.00,,,0.00,WUHU216DAVISVP2,2013-09-24 18:20:00,
2013-09-24 13:21:00,66.7,55.2,29.88,SW,233,0.0,0.0,66,0.00,,,0.00,WUHU216DAVISVP2,2013-09-24 18:21:00,
2013-09-24 13:25:00,66.5,54.8,29.88,North,0,0.0,0.0,66,0.00,,,0.00,WUHU216DAVISVP2,2013-09-24 18:25:00,
2013-09-24 13:26:00,66.5,55.0,29.88,SW,233,0.0,0.0,66,0.00,,,0.00,WUHU216DAVISVP2,2013-09-24 18:26:00,
2013-09-24 13:30:00,66.7,55.4,29.88,North,0,0.0,0.0,67,0.00,,,0.00,WUHU216DAVISVP2,2013-09-24 18:30:00,
2013-09-24 13:31:00,66.7,55.6,29.88,SW,233,0.0,0.0,67,0.00,,,0.00,WUHU216DAVISVP2,2013-09-24 18:31:00,
2013-09-24 13:35:00,67.1,55.4,29.88,North,0,0.0,0.0,66,0.00,,,0.00,WUHU216DAVISVP2,2013-09-24 18:35:00,
2013-09-24 13:36:00,67.2,55.6,29.88,SW,233,0.0,0.0,66,0.00,,,0.00,WUHU216DAVISVP2,2013-09-24 18:36:00,
2013-09-24 13:40:00,67.5,55.3,29.88,North,0,0.0,0.0,65,0.00,,,0.00,WUHU216DAVISVP2,2013-09-24 18:40:00,
2013-09-24 13:41:00,67.6,56.0,29.88,SW,233,0.0,0.0,66,0.00,,,0.00,WUHU216DAVISVP2,2013-09-24 18:41:00,
2013-09-24 13:45:00,68.0,55.4,29.88,North,0,0.0,0.0,64,0.00,,,0.00,WUHU216DAVISVP2,2013-09-24 18:45:00,
2013-09-24 13:46:00,68.0,55.5,29.88,SW,233,0.0,0.0,64,0.00,,,0.00,WUHU216DAVISVP2,2013-09-24 18:46:00,
2013-09-24 13:50:00,68.3,55.2,29.88,North,0,0.0,0.0,63,0.00,,,0.00,WUHU216DAVISVP2,2013-09-24 18:50:00,
2013-09-24 13:51:00,68.3,55.0,29.88,SW,233,0.0,0.0,62,0.00,,,0.00,WUHU216DAVISVP2,2013-09-24 18:51:00,
2013-09-24 13:55:00,68.5,55.0,29.88,North,0,0.0,0.0,62,0.00,,,0.00,WUHU216DAVISVP2,2013-09-24 18:55:00,
2013-09-24 13:56:00,68.5,55.1,29.88,SW,233,0.0,0.0,62,0.00,,,0.00,WUHU216DAVISVP2,2013-09-24 18:56:00,
2013-09-24 14:00:00,68.6,55.1,29.88,North,0,0.0,0.0,62,0.00,,,0.00,WUHU216DAVISVP2,2013-09-24 19:00:00,
2013-09-24 14:01:00,68.7,55.3,29.87,SW,233,0.0,0.0,62,0.00,,,0.00,WUHU216DAVISVP2,2013-09-24 19:01:00,
2013-09-24 14:05:00,69.0,55.0,29.87,North,0,0.0,0.0,61,0.00,,,0.00,WUHU216DAVISVP2,2013-09-24 19:05:00,
2013-09-24 14:06:00,69.1,55.3,29.87,SW,233,0.0,0.0,61,0.00,,,0.00,WUHU216DAVISVP2,2013-09-24 19:06:00,
2013-09-24 14:10:00,69.4,54.4,29.87,North,0,0.0,0.0,59,0.00,,,0.00,WUHU216DAVISVP2,2013-09-24 19:10:00,
2013-09-24 14:11:00,69.4,54.6,29.87,SW,233,0.0,0.0,59,0.00,,,0.00,WUHU216DAVISVP2,2013-09-24 19:11:00,
2013-09-24 14:15:00,69.7,54.7,29.87,North,0,0.0,0.0,59,0.00,,,0.00,WUHU216DAVISVP2,2013-09-24 19:15:00,
2013-09-24 14:16:00,69.7,54.9,29.87,SW,233,0.0,0.0,59,0.00,,,0.00,WUHU216DAVISVP2,2013-09-24 19:16:00,
2013-09-24 14:20:00,69.8,54.8,29.87,North,0,0.0,0.0,59,0.00,,,0.00,WUHU216DAVISVP2,2013-09-24 19:20:00,
2013-09-24 14:21:00,70.0,55.2,29.87,SW,233,0.0,0.0,59,0.00,,,0.00,WUHU216DAVISVP2,2013-09-24 19:21:00,
2013-09-24 14:25:00,70.9,55.4,29.87,North,0,0.0,0.0,58,0.00,,,0.00,WUHU216DAVISVP2,2013-09-24 19:25:00,
2013-09-24 14:26:00,71.2,55.3,29.87,SW,230,0.0,3.0,57,0.00,,,0.00,WUHU216DAVISVP2,2013-09-24 19:26:00,
2013-09-24 14:30:00,72.3,56.2,29.87,SW,225,0.0,3.0,57,0.00,,,0.00,WUHU216DAVISVP2,2013-09-24 19:30:00,
2013-09-24 14:31:00,72.6,56.2,29.87,SW,227,2.0,3.0,56,0.00,,,0.00,WUHU216DAVISVP2,2013-09-24 19:31:00,
2013-09-24 14:35:00,73.4,56.7,29.87,SW,225,1.0,3.0,56,0.00,,,0.00,WUHU216DAVISVP2,2013-09-24 19:35:00,
2013-09-24 14:36:00,73.6,56.6,29.87,SW,227,0.0,3.0,55,0.00,,,0.00,WUHU216DAVISVP2,2013-09-24 19:36:00,
2013-09-24 14:40:00,74.1,54.8,29.86,SW,225,0.0,3.0,51,0.00,,,0.00,WUHU216DAVISVP2,2013-09-24 19:40:00,
2013-09-24 14:41:00,74.2,55.0,29.87,SW,227,0.0,3.0,51,0.00,,,0.00,WUHU216DAVISVP2,2013-09-24 19:41:00,
2013-09-24 14:45:00,74.8,55.5,29.86,SW,225,1.0,6.0,51,0.00,,,0.00,WUHU216DAVISVP2,2013-09-24 19:45:00,
2013-09-24 14:46:00,74.9,55.1,29.87,SSW,206,0.0,6.0,50,0.00,,,0.00,WUHU216DAVISVP2,2013-09-24 19:46:00,
2013-09-24 14:50:00,74.9,54.4,29.86,SSW,203,0.0,6.0,49,0.00,,,0.00,WUHU216DAVISVP2,2013-09-24 19:50:00,
2013-09-24 14:51:00,75.0,55.2,29.86,SSW,206,0.0,6.0,50,0.00,,,0.00,WUHU216DAVISVP2,2013-09-24 19:51:00,
2013-09-24 14:55:00,75.1,55.2,29.86,SSW,203,0.0,6.0,50,0.00,,,0.00,WUHU216DAVISVP2,2013-09-24 19:55:00,
2013-09-24 14:56:00,75.1,54.7,29.86,SSW,206,1.0,3.0,49,0.00,,,0.00,WUHU216DAVISVP2,2013-09-24 19:56:00,
2013-09-24 15:00:00,75.1,54.6,29.86,SSW,203,0.0,3.0,49,0.00,,,0.00,WUHU216DAVISVP2,2013-09-24 20:00:00,
2013-09-24 15:01:00,75.0,55.7,29.86,SSW,206,0.0,3.0,51,0.00,,,0.00,WUHU216DAVISVP2,2013-09-24 20:01:00,
2013-09-24 15:05:00,75.0,55.1,29.86,SSW,203,0.0,3.0,50,0.00,,,0.00,WUHU216DAVISVP2,2013-09-24 20:05:00,
2013-09-24 15:06:00,75.0,55.2,29.86,SSW,205,0.0,3.0,50,0.00,,,0.00,WUHU216DAVISVP2,2013-09-24 20:06:00,
2013-09-24 15:10:00,75.0,54.5,29.86,SSW,203,0.0,3.0,49,0.00,,,0.00,WUHU216DAVISVP2,2013-09-24 20:10:00,
2013-09-24 15:11:00,75.1,54.7,29.86,SSW,205,0.0,3.0,49,0.00,,,0.00,WUHU216DAVISVP2,2013-09-24 20:11:00,
2013-09-24 15:15:00,75.1,55.2,29.86,SSW,203,0.0,3.0,50,0.00,,,0.00,WUHU216DAVISVP2,2013-09-24 20:15:00,
2013-09-24 15:16:00,75.1,55.3,29.85,SSW,206,0.0,2.0,50,0.00,,,0.00,WUHU216DAVISVP2,2013-09-24 20:16:00,
2013-09-24 15:20:00,75.2,54.2,29.85,SSW,203,1.0,5.0,48,0.00,,,0.00,WUHU216DAVISVP2,2013-09-24 20:20:00,
2013-09-24 15:21:00,75.2,54.8,29.86,SSW,206,1.0,5.0,49,0.00,,,0.00,WUHU216DAVISVP2,2013-09-24 20:21:00,
2013-09-24 15:25:00,75.6,54.5,29.85,SSW,203,1.0,5.0,48,0.00,,,0.00,WUHU216DAVISVP2,2013-09-24 20:25:00,
2013-09-24 15:26:00,75.6,54.6,29.86,SSW,205,0.0,5.0,48,0.00,,,0.00,WUHU216DAVISVP2,2013-09-24 20:26:00,
2013-09-24 15:30:00,75.8,54.7,29.85,SSW,203,0.0,5.0,48,0.00,,,0.00,WUHU216DAVISVP2,2013-09-24 20:30:00,
2013-09-24 15:31:00,75.9,55.4,29.85,SSW,206,0.0,4.0,49,0.00,,,0.00,WUHU216DAVISVP2,2013-09-24 20:31:00,
2013-09-24 15:35:00,76.1,55.0,29.85,SSW,203,0.0,4.0,48,0.00,,,0.00,WUHU216DAVISVP2,2013-09-24 20:35:00,
2013-09-24 15:36:00,76.0,53.7,29.85,SSW,206,0.0,2.0,46,0.00,,,0.00,WUHU216DAVISVP2,2013-09-24 20:36:00,
2013-09-24 15:40:00,75.7,53.4,29.85,SSW,203,1.0,7.0,46,0.00,,,0.00,WUHU216DAVISVP2,2013-09-24 20:40:00,
2013-09-24 15:41:00,75.7,53.5,29.85,SSW,199,0.0,7.0,46,0.00,,,0.00,WUHU216DAVISVP2,2013-09-24 20:41:00,
2013-09-24 15:45:00,76.0,53.7,29.85,SSW,203,1.0,7.0,46,0.00,,,0.00,WUHU216DAVISVP2,2013-09-24 20:45:00,
2013-09-24 15:47:00,76.0,53.1,29.85,SSW,198,1.0,7.0,45,0.00,,,0.00,WUHU216DAVISVP2,2013-09-24 20:47:00,
2013-09-24 15:50:00,76.2,52.1,29.85,SSW,203,1.0,7.0,43,0.00,,,0.00,WUHU216DAVISVP2,2013-09-24 20:50:00,
2013-09-24 15:52:00,76.2,51.4,29.85,SSW,200,0.0,6.0,42,0.00,,,0.00,WUHU216DAVISVP2,2013-09-24 20:52:00,
2013-09-24 15:55:00,76.2,50.1,29.85,SSW,203,0.0,6.0,40,0.00,,,0.00,WUHU216DAVISVP2,2013-09-24 20:55:00,
2013-09-24 15:57:00,76.3,50.1,29.85,SSW,199,0.0,6.0,40,0.00,,,0.00,WUHU216DAVISVP2,2013-09-24 20:57:00,
2013-09-24 16:00:00,76.6,51.8,29.85,SSW,203,1.0,6.0,42,0.00,,,0.00,WUHU216DAVISVP2,2013-09-24 21:00:00,
2013-09-24 16:02:00,76.6,51.1,29.85,South,191,0.0,6.0,41,0.00,,,0.00,WUHU216DAVISVP2,2013-09-24 21:02:00,
2013-09-24 16:05:00,76.5,51.0,29.85,SSW,203,0.0,6.0,41,0.00,,,0.00,WUHU216DAVISVP2,2013-09-24 21:05:00,
2013-09-24 16:07:00,76.4,50.2,29.84,SSW,192,0.0,5.0,40,0.00,,,0.00,WUHU216DAVISVP2,2013-09-24 21:07:00,
2013-09-24 16:10:00,76.0,50.6,29.84,North,0,0.0,6.0,41,0.00,,,0.00,WUHU216DAVISVP2,2013-09-24 21:10:00,
2013-09-24 16:12:00,76.0,50.5,29.85,South,191,0.0,1.0,41,0.00,,,0.00,WUHU216DAVISVP2,2013-09-24 21:12:00,
2013-09-24 16:15:00,76.1,52.0,29.84,SSW,203,0.0,5.0,43,0.00,,,0.00,WUHU216DAVISVP2,2013-09-24 21:15:00,
2013-09-24 16:17:00,76.2,51.4,29.85,SSW,192,0.0,5.0,42,0.00,,,0.00,WUHU216DAVISVP2,2013-09-24 21:17:00,
2013-09-24 16:20:00,76.2,51.4,29.84,SSW,203,0.0,5.0,42,0.00,,,0.00,WUHU216DAVISVP2,2013-09-24 21:20:00,
2013-09-24 16:22:00,76.3,50.8,29.84,SSW,192,0.0,5.0,41,0.00,,,0.00,WUHU216DAVISVP2,2013-09-24 21:22:00,
2013-09-24 16:25:00,76.2,51.4,29.84,SSW,203,1.0,5.0,42,0.00,,,0.00,WUHU216DAVISVP2,2013-09-24 21:25:00,
2013-09-24 16:27:00,76.1,51.9,29.84,SSW,192,1.0,5.0,43,0.00,,,0.00,WUHU216DAVISVP2,2013-09-24 21:27:00,
2013-09-24 16:30:00,76.3,51.5,29.84,SSW,203,0.0,5.0,42,0.00,,,0.00,WUHU216DAVISVP2,2013-09-24 21:30:00,
2013-09-24 16:32:00,76.4,51.6,29.84,SSW,193,2.0,4.0,42,0.00,,,0.00,WUHU216DAVISVP2,2013-09-24 21:32:00,
2013-09-24 16:35:00,76.6,50.5,29.84,SSW,203,2.0,7.0,40,0.00,,,0.00,WUHU216DAVISVP2,2013-09-24 21:35:00,
2013-09-24 16:37:00,76.6,51.1,29.84,South,191,0.0,7.0,41,0.00,,,0.00,WUHU216DAVISVP2,2013-09-24 21:37:00,
2013-09-24 16:40:00,76.7,50.6,29.84,South,180,1.0,7.0,40,0.00,,,0.00,WUHU216DAVISVP2,2013-09-24 21:40:00,
2013-09-24 16:42:00,76.6,50.4,29.84,South,191,0.0,7.0,40,0.00,,,0.00,WUHU216DAVISVP2,2013-09-24 21:42:00,
2013-09-24 16:45:00,76.6,50.5,29.84,South,180,0.0,7.0,40,0.00,,,0.00,WUHU216DAVISVP2,2013-09-24 21:45:00,
2013-09-24 16:47:00,76.6,51.7,29.84,South,191,0.0,4.0,42,0.00,,,0.00,WUHU216DAVISVP2,2013-09-24 21:47:00,
2013-09-24 16:50:00,76.1,53.2,29.84,South,180,0.0,4.0,45,0.00,,,0.00,WUHU216DAVISVP2,2013-09-24 21:50:00,
2013-09-24 16:52:00,76.0,52.5,29.84,South,191,0.0,1.0,44,0.00,,,0.00,WUHU216DAVISVP2,2013-09-24 21:52:00,
2013-09-24 16:55:00,75.8,52.3,29.84,North,0,0.0,4.0,44,0.00,,,0.00,WUHU216DAVISVP2,2013-09-24 21:55:00,
2013-09-24 16:57:00,75.8,52.3,29.84,South,191,0.0,6.0,44,0.00,,,0.00,WUHU216DAVISVP2,2013-09-24 21:57:00,
2013-09-24 17:00:00,75.9,53.6,29.84,South,180,0.0,6.0,46,0.00,,,0.00,WUHU216DAVISVP2,2013-09-24 22:00:00,
2013-09-24 17:02:00,75.9,53.6,29.84,South,190,3.0,6.0,46,0.00,,,0.00,WUHU216DAVISVP2,2013-09-24 22:02:00,
2013-09-24 17:05:00,75.7,52.2,29.84,South,180,0.0,6.0,44,0.00,,,0.00,WUHU216DAVISVP2,2013-09-24 22:05:00,
2013-09-24 17:07:00,75.6,52.1,29.84,South,190,0.0,4.0,44,0.00,,,0.00,WUHU216DAVISVP2,2013-09-24 22:07:00,
2013-09-24 17:10:00,75.5,52.7,29.84,North,0,0.0,6.0,45,0.00,,,0.00,WUHU216DAVISVP2,2013-09-24 22:10:00,
2013-09-24 17:12:00,75.5,52.7,29.84,South,190,0.0,3.0,45,0.00,,,0.00,WUHU216DAVISVP2,2013-09-24 22:12:00,
2013-09-24 17:15:00,75.2,51.8,29.84,SSW,203,0.0,4.0,44,0.00,,,0.00,WUHU216DAVISVP2,2013-09-24 22:15:00,
2013-09-24 17:17:00,75.1,51.7,29.84,SSW,192,0.0,1.0,44,0.00,,,0.00,WUHU216DAVISVP2,2013-09-24 22:17:00,
2013-09-24 17:20:00,74.9,52.1,29.84,North,0,0.0,1.0,45,0.00,,,0.00,WUHU216DAVISVP2,2013-09-24 22:20:00,
2013-09-24 17:22:00,74.9,50.8,29.84,SSW,198,0.0,5.0,43,0.00,,,0.00,WUHU216DAVISVP2,2013-09-24 22:22:00,
2013-09-24 17:25:00,74.8,51.4,29.83,SSW,203,1.0,5.0,44,0.00,,,0.00,WUHU216DAVISVP2,2013-09-24 22:25:00,
2013-09-24 17:27:00,74.8,52.0,29.84,SSW,199,0.0,5.0,45,0.00,,,0.00,WUHU216DAVISVP2,2013-09-24 22:27:00,
2013-09-24 17:30:00,74.8,50.2,29.83,South,180,2.0,7.0,42,0.00,,,0.00,WUHU216DAVISVP2,2013-09-24 22:30:00,
2013-09-24 17:32:00,74.8,50.1,29.83,South,188,0.0,7.0,42,0.00,,,0.00,WUHU216DAVISVP2,2013-09-24 22:32:00,
2013-09-24 17:35:00,74.9,52.1,29.83,South,180,0.0,7.0,45,0.00,,,0.00,WUHU216DAVISVP2,2013-09-24 22:35:00,
2013-09-24 17:37:00,74.9,51.5,29.83,South,188,0.0,7.0,44,0.00,,,0.00,WUHU216DAVISVP2,2013-09-24 22:37:00,
2013-09-24 17:40:00,74.9,51.5,29.83,South,180,0.0,7.0,44,0.00,,,0.00,WUHU216DAVISVP2,2013-09-24 22:40:00,
2013-09-24 17:42:00,74.9,52.1,29.83,South,188,0.0,5.0,45,0.00,,,0.00,WUHU216DAVISVP2,2013-09-24 22:42:00,
2013-09-24 17:45:00,74.9,52.1,29.83,SSW,203,0.0,10.0,45,0.00,,,0.00,WUHU216DAVISVP2,2013-09-24 22:45:00,
2013-09-24 17:47:00,74.9,51.5,29.83,South,187,2.0,10.0,44,0.00,,,0.00,WUHU216DAVISVP2,2013-09-24 22:47:00,
2013-09-24 17:50:00,74.8,51.4,29.83,SSW,203,2.0,10.0,44,0.00,,,0.00,WUHU216DAVISVP2,2013-09-24 22:50:00,
2013-09-24 17:52:00,74.7,51.3,29.83,South,184,0.0,10.0,44,0.00,,,0.00,WUHU216DAVISVP2,2013-09-24 22:52:00,
2013-09-24 17:55:00,74.6,51.9,29.83,South,180,0.0,10.0,45,0.00,,,0.00,WUHU216DAVISVP2,2013-09-24 22:55:00,
2013-09-24 17:57:00,74.4,52.3,29.83,SW,218,0.0,5.0,46,0.00,,,0.00,WUHU216DAVISVP2,2013-09-24 22:57:00,
2013-09-24 18:00:00,74.2,51.5,29.83,SW,225,0.0,9.0,45,0.00,,,0.00,WUHU216DAVISVP2,2013-09-24 23:00:00,
2013-09-24 18:02:00,74.1,51.4,29.83,SW,218,0.0,3.0,45,0.00,,,0.00,WUHU216DAVISVP2,2013-09-24 23:02:00,
2013-09-24 18:05:00,73.9,51.8,29.83,SW,225,0.0,4.0,46,0.00,,,0.00,WUHU216DAVISVP2,2013-09-24 23:05:00,
2013-09-24 18:07:00,73.8,51.1,29.83,SSW,203,0.0,5.0,45,0.00,,,0.00,WUHU216DAVISVP2,2013-09-24 23:07:00,
2013-09-24 18:10:00,73.6,51.5,29.83,SSW,203,1.0,5.0,46,0.00,,,0.00,WUHU216DAVISVP2,2013-09-24 23:10:00,
2013-09-24 18:12:00,73.5,51.5,29.83,SSW,205,1.0,5.0,46,0.00,,,0.00,WUHU216DAVISVP2,2013-09-24 23:12:00,
2013-09-24 18:15:00,73.4,51.9,29.83,SSW,203,0.0,5.0,47,0.00,,,0.00,WUHU216DAVISVP2,2013-09-24 23:15:00,
2013-09-24 18:17:00,73.4,51.4,29.83,SSW,204,0.0,4.0,46,0.00,,,0.00,WUHU216DAVISVP2,2013-09-24 23:17:00,
2013-09-24 18:20:00,73.2,52.3,29.83,North,0,0.0,5.0,48,0.00,,,0.00,WUHU216DAVISVP2,2013-09-24 23:20:00,
2013-09-24 18:22:00,73.1,52.3,29.83,SSW,202,0.0,2.0,48,0.00,,,0.00,WUHU216DAVISVP2,2013-09-24 23:22:00,
2013-09-24 18:25:00,72.9,51.5,29.83,SSW,203,0.0,3.0,47,0.00,,,0.00,WUHU216DAVISVP2,2013-09-24 23:25:00,
2013-09-24 18:27:00,72.8,52.0,29.84,SSW,202,1.0,2.0,48,0.00,,,0.00,WUHU216DAVISVP2,2013-09-24 23:27:00,
2013-09-24 18:30:00,72.5,51.7,29.83,SSW,203,0.0,2.0,48,0.00,,,0.00,WUHU216DAVISVP2,2013-09-24 23:30:00,
2013-09-24 18:32:00,72.4,51.6,29.83,SSW,202,0.0,2.0,48,0.00,,,0.00,WUHU216DAVISVP2,2013-09-24 23:32:00,
2013-09-24 18:35:00,72.2,52.0,29.83,North,0,0.0,2.0,49,0.00,,,0.00,WUHU216DAVISVP2,2013-09-24 23:35:00,
2013-09-24 18:37:00,72.1,51.9,29.83,SSW,202,0.0,1.0,49,0.00,,,0.00,WUHU216DAVISVP2,2013-09-24 23:37:00,
2013-09-24 18:40:00,71.8,52.2,29.83,North,0,0.0,1.0,50,0.00,,,0.00,WUHU216DAVISVP2,2013-09-24 23:40:00,
2013-09-24 18:42:00,71.7,52.1,29.83,SSW,202,0.0,1.0,50,0.00,,,0.00,WUHU216DAVISVP2,2013-09-24 23:42:00,
2013-09-24 18:45:00,71.4,51.8,29.83,SSW,203,0.0,1.0,50,0.00,,,0.00,WUHU216DAVISVP2,2013-09-24 23:45:00,
2013-09-24 18:47:00,71.3,51.8,29.83,SSW,202,0.0,1.0,50,0.00,,,0.00,WUHU216DAVISVP2,2013-09-24 23:47:00,
2013-09-24 18:50:00,71.1,52.0,29.83,North,0,0.0,1.0,51,0.00,,,0.00,WUHU216DAVISVP2,2013-09-24 23:50:00,
2013-09-24 18:52:00,70.9,51.4,29.83,SSW,202,0.0,0.0,50,0.00,,,0.00,WUHU216DAVISVP2,2013-09-24 23:52:00,
2013-09-24 18:55:00,70.7,51.1,29.83,SSW,203,0.0,4.0,50,0.00,,,0.00,WUHU216DAVISVP2,2013-09-24 23:55:00,
2013-09-24 18:57:00,70.6,51.7,29.83,SSW,202,0.0,4.0,51,0.00,,,0.00,WUHU216DAVISVP2,2013-09-24 23:57:00,
2013-09-24 19:00:00,70.3,51.3,29.83,North,0,0.0,4.0,51,0.00,,,0.00,WUHU216DAVISVP2,2013-09-25 00:00:00,
2013-09-24 19:02:00,70.3,51.4,29.83,SSW,202,0.0,4.0,51,0.00,,,0.00,WUHU216DAVISVP2,2013-09-25 00:02:00,
2013-09-24 19:05:00,70.0,51.6,29.83,North,0,0.0,4.0,52,0.00,,,0.00,WUHU216DAVISVP2,2013-09-25 00:05:00,
2013-09-24 19:07:00,69.9,51.6,29.84,SSW,200,0.0,0.0,52,0.00,,,0.00,WUHU216DAVISVP2,2013-09-25 00:07:00,
2013-09-24 19:10:00,69.7,51.8,29.84,North,0,0.0,0.0,53,0.00,,,0.00,WUHU216DAVISVP2,2013-09-25 00:10:00,
2013-09-24 19:12:00,69.5,51.7,29.83,SSW,202,0.0,0.0,53,0.00,,,0.00,WUHU216DAVISVP2,2013-09-25 00:12:00,
2013-09-24 19:15:00,69.3,51.4,29.83,North,0,0.0,0.0,53,0.00,,,0.00,WUHU216DAVISVP2,2013-09-25 00:15:00,
2013-09-24 19:17:00,69.1,51.3,29.83,SSW,202,0.0,0.0,53,0.00,,,0.00,WUHU216DAVISVP2,2013-09-25 00:17:00,
2013-09-24 19:20:00,68.8,51.5,29.83,North,0,0.0,0.0,54,0.00,,,0.00,WUHU216DAVISVP2,2013-09-25 00:20:00,
2013-09-24 19:22:00,68.8,51.6,29.83,SSW,201,0.0,2.0,54,0.00,,,0.00,WUHU216DAVISVP2,2013-09-25 00:22:00,
2013-09-24 19:25:00,68.5,51.7,29.83,SSW,203,0.0,2.0,55,0.00,,,0.00,WUHU216DAVISVP2,2013-09-25 00:25:00,
2013-09-24 19:27:00,68.4,51.7,29.83,SSW,200,0.0,2.0,55,0.00,,,0.00,WUHU216DAVISVP2,2013-09-25 00:27:00,
2013-09-24 19:30:00,68.2,51.9,29.83,North,0,0.0,2.0,56,0.00,,,0.00,WUHU216DAVISVP2,2013-09-25 00:30:00,
2013-09-24 19:35:00,67.9,52.1,29.83,North,0,0.0,2.0,57,0.00,,,0.00,WUHU216DAVISVP2,2013-09-25 00:35:00,
2013-09-24 19:40:00,67.5,52.2,29.83,North,0,0.0,0.0,58,0.00,,,0.00,WUHU216DAVISVP2,2013-09-25 00:40:00,
2013-09-24 19:45:00,67.2,52.4,29.83,North,0,0.0,0.0,59,0.00,,,0.00,WUHU216DAVISVP2,2013-09-25 00:45:00,
2013-09-24 19:50:00,67.0,52.7,29.83,North,0,0.0,0.0,60,0.00,,,0.00,WUHU216DAVISVP2,2013-09-25 00:50:00,
2013-09-24 19:55:00,66.6,52.3,29.83,North,0,0.0,0.0,60,0.00,,,0.00,WUHU216DAVISVP2,2013-09-25 00:55:00,
2013-09-24 20:00:00,66.3,52.4,29.83,North,0,0.0,0.0,61,0.00,,,0.00,WUHU216DAVISVP2,2013-09-25 01:00:00,
2013-09-24 20:05:00,66.0,52.2,29.84,North,0,0.0,0.0,61,0.00,,,0.00,WUHU216DAVISVP2,2013-09-25 01:05:00,
2013-09-24 20:10:00,65.7,51.9,29.84,North,0,0.0,0.0,61,0.00,,,0.00,WUHU216DAVISVP2,2013-09-25 01:10:00,
2013-09-24 20:15:00,65.5,51.7,29.84,North,0,0.0,0.0,61,0.00,,,0.00,WUHU216DAVISVP2,2013-09-25 01:15:00,
2013-09-24 20:20:00,65.4,52.0,29.84,North,0,0.0,0.0,62,0.00,,,0.00,WUHU216DAVISVP2,2013-09-25 01:20:00,
2013-09-24 20:25:00,65.2,52.3,29.83,North,0,0.0,0.0,63,0.00,,,0.00,WUHU216DAVISVP2,2013-09-25 01:25:00,
2013-09-24 20:30:00,65.0,52.1,29.84,North,0,0.0,0.0,63,0.00,,,0.00,WUHU216DAVISVP2,2013-09-25 01:30:00,
2013-09-24 20:35:00,64.8,52.3,29.84,North,0,0.0,0.0,64,0.00,,,0.00,WUHU216DAVISVP2,2013-09-25 01:35:00,
2013-09-24 20:40:00,64.6,52.6,29.83,North,0,0.0,0.0,65,0.00,,,0.00,WUHU216DAVISVP2,2013-09-25 01:40:00,
2013-09-24 20:45:00,64.4,52.4,29.84,North,0,0.0,0.0,65,0.00,,,0.00,WUHU216DAVISVP2,2013-09-25 01:45:00,
2013-09-24 20:50:00,64.2,52.6,29.84,North,0,0.0,0.0,66,0.00,,,0.00,WUHU216DAVISVP2,2013-09-25 01:50:00,
2013-09-24 20:55:00,64.0,52.8,29.84,North,0,0.0,0.0,67,0.00,,,0.00,WUHU216DAVISVP2,2013-09-25 01:55:00,
2013-09-24 21:00:00,63.9,52.7,29.84,SSW,203,0.0,2.0,67,0.00,,,0.00,WUHU216DAVISVP2,2013-09-25 02:00:00,
2013-09-24 21:05:00,63.8,52.6,29.84,North,0,0.0,2.0,67,0.00,,,0.00,WUHU216DAVISVP2,2013-09-25 02:05:00,
2013-09-24 21:10:00,63.5,52.7,29.84,North,0,0.0,2.0,68,0.00,,,0.00,WUHU216DAVISVP2,2013-09-25 02:10:00,
2013-09-24 21:15:00,63.3,53.0,29.84,North,0,0.0,0.0,69,0.00,,,0.00,WUHU216DAVISVP2,2013-09-25 02:15:00,
2013-09-24 21:20:00,63.1,52.8,29.84,North,0,0.0,0.0,69,0.00,,,0.00,WUHU216DAVISVP2,2013-09-25 02:20:00,
2013-09-24 21:25:00,62.9,52.6,29.84,North,0,0.0,0.0,69,0.00,,,0.00,WUHU216DAVISVP2,2013-09-25 02:25:00,
2013-09-24 21:30:00,62.7,52.8,29.84,North,0,0.0,0.0,70,0.00,,,0.00,WUHU216DAVISVP2,2013-09-25 02:30:00,
2013-09-24 21:35:00,62.5,52.6,29.84,North,0,0.0,0.0,70,0.00,,,0.00,WUHU216DAVISVP2,2013-09-25 02:35:00,
2013-09-24 21:40:00,62.3,52.8,29.84,North,0,0.0,0.0,71,0.00,,,0.00,WUHU216DAVISVP2,2013-09-25 02:40:00,
2013-09-24 21:45:00,62.2,52.7,29.84,North,0,0.0,0.0,71,0.00,,,0.00,WUHU216DAVISVP2,2013-09-25 02:45:00,
2013-09-24 21:50:00,62.0,52.9,29.84,North,0,0.0,0.0,72,0.00,,,0.00,WUHU216DAVISVP2,2013-09-25 02:50:00,
2013-09-24 21:55:00,61.8,52.7,29.84,North,0,0.0,0.0,72,0.00,,,0.00,WUHU216DAVISVP2,2013-09-25 02:55:00,
2013-09-24 22:00:00,61.6,52.5,29.84,North,0,0.0,0.0,72,0.00,,,0.00,WUHU216DAVISVP2,2013-09-25 03:00:00,
2013-09-24 22:05:00,61.4,52.7,29.84,North,0,0.0,0.0,73,0.00,,,0.00,WUHU216DAVISVP2,2013-09-25 03:05:00,
2013-09-24 22:10:00,61.2,52.5,29.84,North,0,0.0,0.0,73,0.00,,,0.00,WUHU216DAVISVP2,2013-09-25 03:10:00,
2013-09-24 22:15:00,60.9,52.6,29.84,North,0,0.0,0.0,74,0.00,,,0.00,WUHU216DAVISVP2,2013-09-25 03:15:00,
2013-09-24 22:20:00,60.7,52.4,29.84,North,0,0.0,0.0,74,0.00,,,0.00,WUHU216DAVISVP2,2013-09-25 03:20:00,
2013-09-24 22:25:00,60.5,52.5,29.84,North,0,0.0,0.0,75,0.00,,,0.00,WUHU216DAVISVP2,2013-09-25 03:25:00,
2013-09-24 22:30:00,60.4,52.4,29.84,North,0,0.0,0.0,75,0.00,,,0.00,WUHU216DAVISVP2,2013-09-25 03:30:00,
2013-09-24 22:35:00,60.2,52.6,29.84,North,0,0.0,0.0,76,0.00,,,0.00,WUHU216DAVISVP2,2013-09-25 03:35:00,
2013-09-24 22:40:00,60.2,52.6,29.84,North,0,0.0,0.0,76,0.00,,,0.00,WUHU216DAVISVP2,2013-09-25 03:40:00,
2013-09-24 22:45:00,60.1,52.5,29.84,North,0,0.0,0.0,76,0.00,,,0.00,WUHU216DAVISVP2,2013-09-25 03:45:00,
2013-09-24 22:50:00,60.0,52.4,29.84,North,0,0.0,0.0,76,0.00,,,0.00,WUHU216DAVISVP2,2013-09-25 03:50:00,
2013-09-24 22:55:00,59.9,52.7,29.84,North,0,0.0,0.0,77,0.00,,,0.00,WUHU216DAVISVP2,2013-09-25 03:55:00,
2013-09-24 23:00:00,59.9,52.7,29.84,SSW,203,0.0,2.0,77,0.00,,,0.00,WUHU216DAVISVP2,2013-09-25 04:00:00,
2013-09-24 23:05:00,60.0,52.8,29.84,North,0,0.0,2.0,77,0.00,,,0.00,WUHU216DAVISVP2,2013-09-25 04:05:00,
2013-09-24 23:10:00,60.0,52.4,29.84,North,0,0.0,2.0,76,0.00,,,0.00,WUHU216DAVISVP2,2013-09-25 04:10:00,
2013-09-24 23:15:00,60.0,52.4,29.84,North,0,0.0,0.0,76,0.00,,,0.00,WUHU216DAVISVP2,2013-09-25 04:15:00,
2013-09-24 23:20:00,60.0,52.8,29.84,North,0,0.0,0.0,77,0.00,,,0.00,WUHU216DAVISVP2,2013-09-25 04:20:00,
2013-09-24 23:25:00,59.8,52.6,29.85,North,0,0.0,0.0,77,0.00,,,0.00,WUHU216DAVISVP2,2013-09-25 04:25:00,
2013-09-24 23:30:00,59.6,52.4,29.85,North,0,0.0,0.0,77,0.00,,,0.00,WUHU216DAVISVP2,2013-09-25 04:30:00,
2013-09-24 23:35:00,59.4,52.2,29.85,North,0,0.0,0.0,77,0.00,,,0.00,WUHU216DAVISVP2,2013-09-25 04:35:00,
2013-09-24 23:40:00,59.3,52.4,29.85,North,0,0.0,0.0,78,0.00,,,0.00,WUHU216DAVISVP2,2013-09-25 04:40:00,
2013-09-24 23:45:00,59.4,52.2,29.85,North,0,0.0,0.0,77,0.00,,,0.00,WUHU216DAVISVP2,2013-09-25 04:45:00,
2013-09-24 23:50:00,59.4,52.2,29.85,North,0,0.0,0.0,77,0.00,,,0.00,WUHU216DAVISVP2,2013-09-25 04:50:00,
2013-09-24 23:55:00,59.2,52.0,29.85,North,0,0.0,0.0,77,0.00,,,0.00,WUHU216DAVISVP2,2013-09-25 04:55:00,